Meteo Giornale » Osservazioni meteo Italia » Reggio Calabria
ore: 21:20 - Osservazioni Meteo Reggio Calabria
Lat. 38° 4' N Lon. 15° 39' E Alt. 11 metri s.l.m.
28 °C
Sereno
Temp. 24 Ore
28 °C
33 °C
Nord/Nord-Est
18.5 Km/h
Dew point 22 °C
Umidità 69 %
Visibilità 10 Km
Il sole sorge alle ore 06:27
Il sole tramonta alle ore 19:27
| Data e Ora | Cielo e Fenomeni | T °C | DP °C | Um. % | Pres. hPa | Vis. km | Vento km/h | |
|---|---|---|---|---|---|---|---|---|
| Oggi h: 21:20 | Sereno | 28 | 22 | 69 | 1017 | 10 | N/NE 18.5 | |
| Oggi h: 20:50 | Sereno | 28 | 22 | 69 | 1017 | 10 | N/NE 16.7 | |
| Oggi h: 20:20 | Sereno | 29 | 22 | 66 | 1017 | 10 | N 20.3 | |
| Oggi h: 19:50 | Sereno | 29 | 22 | 66 | 1016 | 10 | N/NE 20.3 | |
| Oggi h: 19:20 | Sereno | 29 | 22 | 66 | 1016 | 10 | N 25.9 | |
| Oggi h: 18:50 | Sereno | 29 | 21 | 62 | 1016 | 10 | N 24 | |
| Oggi h: 18:20 | Sereno | 30 | 20 | 55 | 1016 | 10 | N 24 | |
| Oggi h: 17:50 | Sereno | 31 | 19 | 48 | 1016 | 10 | N 25.9 | |
| Oggi h: 17:20 | Sereno | 32 | 18 | 43 | 1016 | 10 | N 27.8 | |
| Oggi h: 16:50 | Sereno | 32 | 18 | 43 | 1016 | 10 | N 24 | |
| Oggi h: 16:20 | Sereno | 33 | 18 | 41 | 1016 | 10 | N 24 | |
| Oggi h: 15:50 | Sereno | 33 | 18 | 41 | 1016 | 10 | N 25.9 | |
| Oggi h: 15:20 | Sereno | 33 | 19 | 43 | 1016 | 10 | N 27.8 | |
| Oggi h: 14:50 | Sereno | 33 | 19 | 43 | 1016 | 10 | N 27.8 | |
| Oggi h: 14:20 | Sereno | 33 | 19 | 43 | 1016 | 10 | N 25.9 | |
| Oggi h: 13:50 | Sereno | 33 | 18 | 41 | 1016 | 10 | N 24 | |
| Oggi h: 13:20 | Sereno | 33 | 18 | 41 | 1016 | 10 | N 25.9 | |
| Oggi h: 12:50 | Sereno | 33 | 19 | 43 | 1016 | 10 | N 25.9 | |
| Oggi h: 12:20 | Sereno | 33 | 20 | 46 | 1016 | 10 | N 24 | |
| Oggi h: 11:50 | Sereno | 32 | 20 | 49 | 1016 | 10 | N 25.9 | |
| Oggi h: 11:20 | Sereno | 31 | 21 | 55 | 1017 | 10 | N 25.9 | |
| Oggi h: 10:50 | Sereno | 32 | 21 | 52 | 1016 | 10 | N 22.2 | |
| Oggi h: 10:20 | Sereno | 31 | 21 | 55 | 1016 | 10 | N/NO 24 | |
| Oggi h: 09:50 | Sereno | 31 | 21 | 55 | 1016 | 10 | N 20.3 | |
| Oggi h: 09:20 | Sereno | 31 | 21 | 55 | 1016 | 10 | N 16.7 | |
| Oggi h: 08:50 | Poco Nuvoloso | 29 | 22 | 66 | 1016 | 10 | N/NE 16.7 | |
| Oggi h: 08:20 | Sereno | 29 | 22 | 66 | 1016 | 10 | N 18.5 | |
| Oggi h: 07:50 | Poco Nuvoloso | 29 | 22 | 66 | 1016 | 10 | N 16.7 | |
| Oggi h: 07:20 | Sereno | 28 | 22 | 69 | 1016 | 10 | N/NE 18.5 | |
| Oggi h: 06:50 | Sereno | 28 | 22 | 69 | 1016 | 10 | N/NE 24 | |
| Oggi h: 06:20 | Sereno | 28 | 22 | 69 | 1015 | 10 | N 20.3 | |
| Oggi h: 05:50 | Sereno | 28 | 22 | 69 | 1015 | 10 | N/NE 22.2 | |
| Oggi h: 05:20 | Sereno | 28 | 22 | 69 | 1016 | 10 | N/NE 22.2 | |
| Oggi h: 04:50 | Sereno | 28 | 22 | 69 | 1016 | 10 | N/NE 20.3 | |
| Oggi h: 04:20 | Sereno | 28 | 22 | 69 | 1016 | 10 | N/NE 22.2 | |
| Oggi h: 03:50 | Poco Nuvoloso | 28 | 22 | 69 | 1016 | 10 | N 18.5 | |
| Oggi h: 03:20 | Nuvoloso | 28 | 22 | 69 | 1016 | 10 | N/NE 18.5 | |
| Oggi h: 02:50 | Sereno | 28 | 21 | 65 | 1016 | 10 | N/NE 18.5 | |
| Oggi h: 02:20 | Sereno | 28 | 20 | 61 | 1015 | 10 | N 20.3 | |
| Oggi h: 01:50 | Sereno | 28 | 20 | 61 | 1015 | 10 | N 16.7 | |
| Oggi h: 01:20 | Sereno | 28 | 20 | 61 | 1015 | 10 | N 14.8 | |
| Oggi h: 00:50 | Sereno | 29 | 20 | 58 | 1015 | 10 | N 13 | |
| Oggi h: 00:20 | Sereno | 29 | 20 | 58 | 1016 | 10 | N/NE 18.5 | |
| Ieri h: 23:50 | Poco Nuvoloso | 29 | 20 | 58 | 1016 | 10 | N/NE 16.7 | |
| Ieri h: 23:20 | Poco Nuvoloso | 28 | 20 | 61 | 1016 | 10 | N/NE 11.1 | |
| Ieri h: 22:50 | Nuvoloso | 28 | 22 | 69 | 1016 | 10 | N 14.8 | |
| Ieri h: 22:20 | Nuvoloso | 29 | 21 | 62 | 1015 | 10 | N 13 | |
| Ieri h: 21:50 | Sereno | 29 | 21 | 62 | 1015 | 10 | N 16.7 | |



